Year,Month,Day,Hour,Minute,Value (Times are PST for temperature in C)
2007,04,20,00,00,6.60
2007,04,20,00,01,6.60
2007,04,20,00,02,6.50
2007,04,20,00,03,6.40
2007,04,20,00,04,6.40
2007,04,20,00,05,6.40
2007,04,20,00,06,6.40
2007,04,20,00,07,6.40
2007,04,20,00,08,6.40
2007,04,20,00,09,6.40
2007,04,20,00,10,6.40
2007,04,20,00,11,6.40
2007,04,20,00,12,6.40
2007,04,20,00,13,6.40
2007,04,20,00,14,6.40
2007,04,20,00,15,6.40
2007,04,20,00,16,6.40
2007,04,20,00,17,6.40
2007,04,20,00,18,6.40
2007,04,20,00,19,6.40
2007,04,20,00,20,6.40
2007,04,20,00,21,6.40
2007,04,20,00,22,6.30
2007,04,20,00,23,6.30
2007,04,20,00,24,6.20
2007,04,20,00,25,6.20
2007,04,20,00,26,6.20
2007,04,20,00,27,6.20
2007,04,20,00,28,6.20
2007,04,20,00,29,6.20
2007,04,20,00,30,6.20
2007,04,20,00,31,6.20
2007,04,20,00,32,6.20
2007,04,20,00,33,6.20
2007,04,20,00,34,6.20
2007,04,20,00,35,6.30
2007,04,20,00,36,6.30
2007,04,20,00,37,6.30
2007,04,20,00,38,6.30
2007,04,20,00,39,6.20
2007,04,20,00,40,6.20
2007,04,20,00,41,6.20
2007,04,20,00,42,6.20
2007,04,20,00,43,6.20
2007,04,20,00,44,6.20
2007,04,20,00,45,6.20
2007,04,20,00,46,6.20
2007,04,20,00,47,6.20
2007,04,20,00,48,6.10
2007,04,20,00,49,6.10
2007,04,20,00,50,6.10
2007,04,20,00,51,6.10
2007,04,20,00,52,6.10
2007,04,20,00,53,6.10
2007,04,20,00,54,6.10
2007,04,20,00,55,6.10
2007,04,20,00,56,6.10
2007,04,20,00,57,6.10
2007,04,20,00,58,6.10
2007,04,20,00,59,6.10
2007,04,20,01,00,6.20
2007,04,20,01,01,6.20
2007,04,20,01,02,6.20
2007,04,20,01,03,6.20
2007,04,20,01,04,6.20
2007,04,20,01,05,6.20
2007,04,20,01,06,6.20
2007,04,20,01,07,6.20
2007,04,20,01,08,6.20
2007,04,20,01,09,6.20
2007,04,20,01,10,6.20
2007,04,20,01,11,6.20
2007,04,20,01,12,6.20
2007,04,20,01,13,6.20
2007,04,20,01,14,6.20
2007,04,20,01,15,6.20
2007,04,20,01,16,6.20
2007,04,20,01,17,6.20
2007,04,20,01,18,6.20
2007,04,20,01,19,6.20
2007,04,20,01,20,6.20
2007,04,20,01,21,6.10
2007,04,20,01,22,6.10
2007,04,20,01,23,6.10
2007,04,20,01,24,6.10
2007,04,20,01,25,6.00
2007,04,20,01,26,6.00
2007,04,20,01,27,6.00
2007,04,20,01,28,6.00
2007,04,20,01,29,5.90
2007,04,20,01,30,5.90
2007,04,20,01,31,5.90
2007,04,20,01,32,5.90
2007,04,20,01,33,5.80
2007,04,20,01,34,5.80
2007,04,20,01,35,5.80
2007,04,20,01,36,5.80
2007,04,20,01,37,5.80
2007,04,20,01,38,5.80
2007,04,20,01,39,5.80
2007,04,20,01,40,5.80
2007,04,20,01,41,5.80
2007,04,20,01,42,5.80
2007,04,20,01,43,5.80
2007,04,20,01,44,5.80
2007,04,20,01,45,5.80
2007,04,20,01,46,5.80
2007,04,20,01,47,5.80
2007,04,20,01,48,5.80
2007,04,20,01,49,5.80
2007,04,20,01,50,5.80
2007,04,20,01,51,5.80
2007,04,20,01,52,5.80
2007,04,20,01,53,5.80
2007,04,20,01,54,5.80
2007,04,20,01,55,5.80
2007,04,20,01,56,5.80
2007,04,20,01,57,5.80
2007,04,20,01,58,5.80
2007,04,20,01,59,5.80
2007,04,20,02,00,5.80
2007,04,20,02,01,5.80
2007,04,20,02,02,5.80
2007,04,20,02,03,5.70
2007,04,20,02,04,5.70
2007,04,20,02,05,5.70
2007,04,20,02,06,5.70
2007,04,20,02,07,5.70
2007,04,20,02,08,5.70
2007,04,20,02,09,5.70
2007,04,20,02,10,5.70
2007,04,20,02,11,5.70
2007,04,20,02,12,5.70
2007,04,20,02,13,5.70
2007,04,20,02,14,5.70
2007,04,20,02,15,5.70
2007,04,20,02,16,5.60
2007,04,20,02,17,5.60
2007,04,20,02,18,5.60
2007,04,20,02,19,5.60
2007,04,20,02,20,5.60
2007,04,20,02,21,5.60
2007,04,20,02,22,5.60
2007,04,20,02,23,5.60
2007,04,20,02,24,5.60
2007,04,20,02,25,5.50
2007,04,20,02,26,5.50
2007,04,20,02,27,5.50
2007,04,20,02,28,5.50
2007,04,20,02,29,5.50
2007,04,20,02,30,5.40
2007,04,20,02,31,5.40
2007,04,20,02,32,5.40
2007,04,20,02,33,5.40
2007,04,20,02,34,5.40
2007,04,20,02,35,5.40
2007,04,20,02,36,5.40
2007,04,20,02,37,5.40
2007,04,20,02,38,5.30
2007,04,20,02,39,5.30
2007,04,20,02,40,5.30
2007,04,20,02,41,5.30
2007,04,20,02,42,5.30
2007,04,20,02,43,5.30
2007,04,20,02,44,5.30
2007,04,20,02,45,5.30
2007,04,20,02,46,5.30
2007,04,20,02,47,5.30
2007,04,20,02,48,5.30
2007,04,20,02,49,5.30
2007,04,20,02,50,5.30
2007,04,20,02,51,5.30
2007,04,20,02,52,5.30
2007,04,20,02,53,5.30
2007,04,20,02,54,5.20
2007,04,20,02,55,5.20
2007,04,20,02,56,5.10
2007,04,20,02,57,5.10
2007,04,20,02,58,5.10
2007,04,20,02,59,5.00
2007,04,20,03,00,4.90
2007,04,20,03,01,4.90
2007,04,20,03,02,4.90
2007,04,20,03,03,4.80
2007,04,20,03,04,4.70
2007,04,20,03,05,4.70
2007,04,20,03,06,4.60
2007,04,20,03,07,4.60
2007,04,20,03,08,4.60
2007,04,20,03,09,4.50
2007,04,20,03,10,4.50
2007,04,20,03,11,4.40
2007,04,20,03,12,4.40
2007,04,20,03,13,4.40
2007,04,20,03,14,4.30
2007,04,20,03,15,4.30
2007,04,20,03,16,4.30
2007,04,20,03,17,4.20
2007,04,20,03,18,4.20
2007,04,20,03,19,4.20
2007,04,20,03,20,4.20
2007,04,20,03,21,4.20
2007,04,20,03,22,4.20
2007,04,20,03,23,4.10
2007,04,20,03,24,4.10
2007,04,20,03,25,4.10
2007,04,20,03,26,4.00
2007,04,20,03,27,4.00
2007,04,20,03,28,4.00
2007,04,20,03,29,4.00
2007,04,20,03,30,3.90
2007,04,20,03,31,3.90
2007,04,20,03,32,3.90
2007,04,20,03,33,3.90
2007,04,20,03,34,3.80
2007,04,20,03,35,3.80
2007,04,20,03,36,3.80
2007,04,20,03,37,3.80
2007,04,20,03,38,3.80
2007,04,20,03,39,3.80
2007,04,20,03,40,3.80
2007,04,20,03,41,3.70
2007,04,20,03,42,3.70
2007,04,20,03,43,3.70
2007,04,20,03,44,3.70
2007,04,20,03,45,3.60
2007,04,20,03,46,3.60
2007,04,20,03,47,3.60
2007,04,20,03,48,3.60
2007,04,20,03,49,3.60
2007,04,20,03,50,3.60
2007,04,20,03,51,3.60
2007,04,20,03,52,3.50
2007,04,20,03,53,3.50
2007,04,20,03,54,3.50
2007,04,20,03,55,3.50
2007,04,20,03,56,3.50
2007,04,20,03,57,3.50
2007,04,20,03,58,3.60
2007,04,20,03,59,3.60
2007,04,20,04,00,3.60
2007,04,20,04,01,3.60
2007,04,20,04,02,3.60
2007,04,20,04,03,3.60
2007,04,20,04,04,3.60
2007,04,20,04,05,3.60
2007,04,20,04,06,3.60
2007,04,20,04,07,3.60
2007,04,20,04,08,3.60
2007,04,20,04,09,3.60
2007,04,20,04,10,3.50
2007,04,20,04,11,3.50
2007,04,20,04,12,3.40
2007,04,20,04,13,3.40
2007,04,20,04,14,3.30
2007,04,20,04,15,3.30
2007,04,20,04,16,3.30
2007,04,20,04,17,3.30
2007,04,20,04,18,3.30
2007,04,20,04,19,3.30
2007,04,20,04,20,3.30
2007,04,20,04,21,3.20
2007,04,20,04,22,3.20
2007,04,20,04,23,3.20
2007,04,20,04,24,3.20
2007,04,20,04,25,3.20
2007,04,20,04,26,3.10
2007,04,20,04,27,3.10
2007,04,20,04,28,3.10
2007,04,20,04,29,3.10
2007,04,20,04,30,3.10
2007,04,20,04,31,3.10
2007,04,20,04,32,3.10
2007,04,20,04,33,3.10
2007,04,20,04,34,3.10
2007,04,20,04,35,3.10
2007,04,20,04,36,3.10
2007,04,20,04,37,3.10
2007,04,20,04,38,3.10
2007,04,20,04,39,3.10
2007,04,20,04,40,3.10
2007,04,20,04,41,3.10
2007,04,20,04,42,3.10
2007,04,20,04,43,3.10
2007,04,20,04,44,3.10
2007,04,20,04,45,3.10
2007,04,20,04,46,3.10
2007,04,20,04,47,2.90
2007,04,20,04,48,2.90
2007,04,20,04,49,2.90
2007,04,20,04,50,2.90
2007,04,20,04,51,2.90
2007,04,20,04,52,2.90
2007,04,20,04,53,2.90
2007,04,20,04,54,2.90
2007,04,20,04,55,2.90
2007,04,20,04,56,2.90
2007,04,20,04,57,2.90
2007,04,20,04,58,2.80
2007,04,20,04,59,2.80
2007,04,20,05,00,2.80
2007,04,20,05,01,2.80
2007,04,20,05,02,2.80
2007,04,20,05,03,2.80
2007,04,20,05,04,2.80
2007,04,20,05,05,2.80
2007,04,20,05,06,2.80
2007,04,20,05,07,2.80
2007,04,20,05,08,2.70
2007,04,20,05,09,2.70
2007,04,20,05,10,2.70
2007,04,20,05,11,2.70
2007,04,20,05,12,2.70
2007,04,20,05,13,2.70
2007,04,20,05,14,2.70
2007,04,20,05,15,2.60
2007,04,20,05,16,2.60
2007,04,20,05,17,2.60
2007,04,20,05,18,2.60
2007,04,20,05,19,2.60
2007,04,20,05,20,2.60
2007,04,20,05,21,2.60
2007,04,20,05,22,2.60
2007,04,20,05,23,2.60
2007,04,20,05,24,2.60
2007,04,20,05,25,2.60
2007,04,20,05,26,2.60
2007,04,20,05,27,2.60
2007,04,20,05,28,2.60
2007,04,20,05,29,2.60
2007,04,20,05,30,2.60
2007,04,20,05,31,2.60
2007,04,20,05,32,2.60
2007,04,20,05,33,2.60
2007,04,20,05,34,2.70
2007,04,20,05,35,2.70
2007,04,20,05,36,2.70
2007,04,20,05,37,2.80
2007,04,20,05,38,2.80
2007,04,20,05,39,2.80
2007,04,20,05,40,2.80
2007,04,20,05,41,2.80
2007,04,20,05,42,2.80
2007,04,20,05,43,2.70
2007,04,20,05,44,2.70
2007,04,20,05,45,2.70
2007,04,20,05,46,2.70
2007,04,20,05,47,2.70
2007,04,20,05,48,2.70
2007,04,20,05,49,2.70
2007,04,20,05,50,2.70
2007,04,20,05,51,2.70
2007,04,20,05,52,2.80
2007,04,20,05,53,2.80
2007,04,20,05,54,2.80
2007,04,20,05,55,2.80
2007,04,20,05,56,2.80
2007,04,20,05,57,2.90
2007,04,20,05,58,2.90
2007,04,20,05,59,3.00
2007,04,20,06,00,3.10
2007,04,20,06,01,3.10
2007,04,20,06,02,3.20
2007,04,20,06,03,3.20
2007,04,20,06,04,3.30
2007,04,20,06,05,3.30
2007,04,20,06,06,3.30
2007,04,20,06,07,3.40
2007,04,20,06,08,3.40
2007,04,20,06,09,3.40
2007,04,20,06,10,3.40
2007,04,20,06,11,3.40
2007,04,20,06,12,3.40
2007,04,20,06,13,3.40
2007,04,20,06,14,3.40
2007,04,20,06,15,3.30
2007,04,20,06,16,3.30
2007,04,20,06,17,3.30
2007,04,20,06,18,3.20
2007,04,20,06,19,3.20
2007,04,20,06,20,3.20
2007,04,20,06,21,3.20
2007,04,20,06,22,3.20
2007,04,20,06,23,3.30
2007,04,20,06,24,3.30
2007,04,20,06,25,3.30
2007,04,20,06,26,3.30
2007,04,20,06,27,3.30
2007,04,20,06,28,3.30
2007,04,20,06,29,3.30
2007,04,20,06,30,3.30
2007,04,20,06,31,3.30
2007,04,20,06,32,3.30
2007,04,20,06,33,3.30
2007,04,20,06,34,3.30
2007,04,20,06,35,3.30
2007,04,20,06,36,3.30
2007,04,20,06,37,3.30
2007,04,20,06,38,3.30
2007,04,20,06,39,3.30
2007,04,20,06,40,3.30
2007,04,20,06,41,3.30
2007,04,20,06,42,3.30
2007,04,20,06,43,3.30
2007,04,20,06,44,3.30
2007,04,20,06,45,3.30
2007,04,20,06,46,3.30
2007,04,20,06,47,3.30
2007,04,20,06,48,3.30
2007,04,20,06,49,3.30
2007,04,20,06,50,3.30
2007,04,20,06,51,3.30
2007,04,20,06,52,3.30
2007,04,20,06,53,3.30
2007,04,20,06,54,3.30
2007,04,20,06,55,3.30
2007,04,20,06,56,3.30
2007,04,20,06,57,3.30
2007,04,20,06,58,3.30
2007,04,20,06,59,3.30
2007,04,20,07,00,3.40
2007,04,20,07,01,3.40
2007,04,20,07,02,3.50
2007,04,20,07,03,3.50
2007,04,20,07,04,3.50
2007,04,20,07,05,3.60
2007,04,20,07,06,3.60
2007,04,20,07,07,3.70
2007,04,20,07,08,3.70
2007,04,20,07,09,3.80
2007,04,20,07,10,3.80
2007,04,20,07,11,3.80
2007,04,20,07,12,3.90
2007,04,20,07,13,4.00
2007,04,20,07,14,4.00
2007,04,20,07,15,4.10
2007,04,20,07,16,4.20
2007,04,20,07,17,4.30
2007,04,20,07,18,4.30
2007,04,20,07,19,4.50
2007,04,20,07,20,4.50
2007,04,20,07,21,4.60
2007,04,20,07,22,4.70
2007,04,20,07,23,4.70
2007,04,20,07,24,4.80
2007,04,20,07,25,4.80
2007,04,20,07,26,4.90
2007,04,20,07,27,5.00
2007,04,20,07,28,5.10
2007,04,20,07,29,5.10
2007,04,20,07,30,5.20
2007,04,20,07,31,5.30
2007,04,20,07,32,5.30
2007,04,20,07,33,5.40
2007,04,20,07,34,5.40
2007,04,20,07,35,5.40
2007,04,20,07,36,5.50
2007,04,20,07,37,5.50
2007,04,20,07,38,5.60
2007,04,20,07,39,5.60
2007,04,20,07,40,5.70
2007,04,20,07,41,5.70
2007,04,20,07,42,5.80
2007,04,20,07,43,5.90
2007,04,20,07,44,6.00
2007,04,20,07,45,6.00
2007,04,20,07,46,6.10
2007,04,20,07,47,6.20
2007,04,20,07,48,6.20
2007,04,20,07,49,6.30
2007,04,20,07,50,6.40
2007,04,20,07,51,6.40
2007,04,20,07,52,6.50
2007,04,20,07,53,6.60
2007,04,20,07,54,6.60
2007,04,20,07,55,6.60
2007,04,20,07,56,6.70
2007,04,20,07,57,6.70
2007,04,20,07,58,6.80
2007,04,20,07,59,6.90
2007,04,20,08,00,7.00
2007,04,20,08,01,7.00
2007,04,20,08,02,7.10
2007,04,20,08,03,7.20
2007,04,20,08,04,7.30
2007,04,20,08,05,7.30
2007,04,20,08,06,7.40
2007,04,20,08,07,7.50
2007,04,20,08,08,7.60
2007,04,20,08,09,7.60
2007,04,20,08,10,7.60
2007,04,20,08,11,7.70
2007,04,20,08,12,7.70
2007,04,20,08,13,7.70
2007,04,20,08,14,7.70
2007,04,20,08,15,7.70
2007,04,20,08,16,7.70
2007,04,20,08,17,7.70
2007,04,20,08,18,7.70
2007,04,20,08,19,7.80
2007,04,20,08,20,7.80
2007,04,20,08,21,7.80
2007,04,20,08,22,7.90
2007,04,20,08,23,7.90
2007,04,20,08,24,8.00
2007,04,20,08,25,8.10
2007,04,20,08,26,8.10
2007,04,20,08,27,8.10
2007,04,20,08,28,8.00
2007,04,20,08,29,8.00
2007,04,20,08,30,8.10
2007,04,20,08,31,8.10
2007,04,20,08,32,8.10
2007,04,20,08,33,8.10
2007,04,20,08,34,8.20
2007,04,20,08,35,8.20
2007,04,20,08,36,8.20
2007,04,20,08,37,8.20
2007,04,20,08,38,8.30
2007,04,20,08,39,8.30
2007,04,20,08,40,8.40
2007,04,20,08,41,8.40
2007,04,20,08,42,8.40
2007,04,20,08,43,8.40
2007,04,20,08,44,8.40
2007,04,20,08,45,8.40
2007,04,20,08,46,8.40
2007,04,20,08,47,8.40
2007,04,20,08,48,8.40
2007,04,20,08,49,8.50
2007,04,20,08,50,8.50
2007,04,20,08,51,8.50
2007,04,20,08,52,8.50
2007,04,20,08,53,8.50
2007,04,20,08,54,8.50
2007,04,20,08,55,8.50
2007,04,20,08,56,8.50
2007,04,20,08,57,8.50
2007,04,20,08,58,8.50
2007,04,20,08,59,8.50
2007,04,20,09,00,8.60
2007,04,20,09,01,8.60
2007,04,20,09,02,8.70
2007,04,20,09,03,8.70
2007,04,20,09,04,8.60
2007,04,20,09,05,8.60
2007,04,20,09,06,8.60
2007,04,20,09,07,8.60
2007,04,20,09,08,8.60
2007,04,20,09,09,8.70
2007,04,20,09,10,8.70
2007,04,20,09,11,8.70
2007,04,20,09,12,8.70
2007,04,20,09,13,8.70
2007,04,20,09,14,8.70
2007,04,20,09,15,8.80
2007,04,20,09,16,8.90
2007,04,20,09,17,9.00
2007,04,20,09,18,9.00
2007,04,20,09,19,9.10
2007,04,20,09,20,9.10
2007,04,20,09,21,9.20
2007,04,20,09,22,9.20
2007,04,20,09,23,9.20
2007,04,20,09,24,9.20
2007,04,20,09,25,9.30
2007,04,20,09,26,9.30
2007,04,20,09,27,9.30
2007,04,20,09,28,9.40
2007,04,20,09,29,9.40
2007,04,20,09,30,9.50
2007,04,20,09,31,9.50
2007,04,20,09,32,9.50
2007,04,20,09,33,9.50
2007,04,20,09,34,9.70
2007,04,20,09,35,9.70
2007,04,20,09,36,9.70
2007,04,20,09,37,9.80
2007,04,20,09,38,9.80
2007,04,20,09,39,9.70
2007,04,20,09,40,9.70
2007,04,20,09,41,9.70
2007,04,20,09,42,9.70
2007,04,20,09,43,9.70
2007,04,20,09,44,9.70
2007,04,20,09,45,9.70
2007,04,20,09,46,9.70
2007,04,20,09,47,9.70
2007,04,20,09,48,9.70
2007,04,20,09,49,9.60
2007,04,20,09,50,9.60
2007,04,20,09,51,9.60
2007,04,20,09,52,9.60
2007,04,20,09,53,9.50
2007,04,20,09,54,9.40
2007,04,20,09,55,9.30
2007,04,20,09,56,9.30
2007,04,20,09,57,9.30
2007,04,20,09,58,9.30
2007,04,20,09,59,9.40
2007,04,20,10,00,9.40
2007,04,20,10,01,9.50
2007,04,20,10,02,9.60
2007,04,20,10,03,9.60
2007,04,20,10,04,9.60
2007,04,20,10,05,9.70
2007,04,20,10,06,9.80
2007,04,20,10,07,9.90
2007,04,20,10,08,9.90
2007,04,20,10,09,10.00
2007,04,20,10,10,10.10
2007,04,20,10,11,10.10
2007,04,20,10,12,10.10
2007,04,20,10,13,10.10
2007,04,20,10,14,10.10
2007,04,20,10,15,10.10
2007,04,20,10,16,10.10
2007,04,20,10,17,10.10
2007,04,20,10,18,10.10
2007,04,20,10,19,10.10
2007,04,20,10,20,10.20
2007,04,20,10,21,10.20
2007,04,20,10,22,10.20
2007,04,20,10,23,10.30
2007,04,20,10,24,10.30
2007,04,20,10,25,10.40
2007,04,20,10,26,10.40
2007,04,20,10,27,10.40
2007,04,20,10,28,10.40
2007,04,20,10,29,10.40
2007,04,20,10,30,10.40
2007,04,20,10,31,10.50
2007,04,20,10,32,10.60
2007,04,20,10,33,10.60
2007,04,20,10,34,10.60
2007,04,20,10,35,10.40
2007,04,20,10,36,10.20
2007,04,20,10,37,10.20
2007,04,20,10,38,10.10
2007,04,20,10,39,10.20
2007,04,20,10,40,10.30
2007,04,20,10,41,10.30
2007,04,20,10,42,10.40
2007,04,20,10,43,10.40
2007,04,20,10,44,10.40
2007,04,20,10,45,10.30
2007,04,20,10,46,10.40
2007,04,20,10,47,10.30
2007,04,20,10,48,10.30
2007,04,20,10,49,10.40
2007,04,20,10,50,10.50
2007,04,20,10,51,10.60
2007,04,20,10,52,10.80
2007,04,20,10,53,10.90
2007,04,20,10,54,11.00
2007,04,20,10,55,11.10
2007,04,20,10,56,11.20
2007,04,20,10,57,11.20
2007,04,20,10,58,11.20
2007,04,20,10,59,11.10
2007,04,20,11,00,11.20
2007,04,20,11,01,11.20
2007,04,20,11,02,11.20
2007,04,20,11,03,11.30
2007,04,20,11,04,11.30
2007,04,20,11,05,11.40
2007,04,20,11,06,11.40
2007,04,20,11,07,11.40
2007,04,20,11,08,11.40
2007,04,20,11,09,11.40
2007,04,20,11,10,11.40
2007,04,20,11,11,11.40
2007,04,20,11,12,11.40
2007,04,20,11,13,11.40
2007,04,20,11,14,11.60
2007,04,20,11,15,11.60
2007,04,20,11,16,11.60
2007,04,20,11,17,11.60
2007,04,20,11,18,11.70
2007,04,20,11,19,11.70
2007,04,20,11,20,11.80
2007,04,20,11,21,11.80
2007,04,20,11,22,11.90
2007,04,20,11,23,12.00
2007,04,20,11,24,12.00
2007,04,20,11,25,12.00
2007,04,20,11,26,11.90
2007,04,20,11,27,11.80
2007,04,20,11,28,11.60
2007,04,20,11,29,11.40
2007,04,20,11,30,11.30
2007,04,20,11,31,11.20
2007,04,20,11,32,11.30
2007,04,20,11,33,11.40
2007,04,20,11,34,11.40
2007,04,20,11,35,11.50
2007,04,20,11,36,11.60
2007,04,20,11,37,11.60
2007,04,20,11,38,11.60
2007,04,20,11,39,11.60
2007,04,20,11,40,11.60
2007,04,20,11,41,11.60
2007,04,20,11,42,11.60
2007,04,20,11,43,11.50
2007,04,20,11,44,11.40
2007,04,20,11,45,11.40
2007,04,20,11,46,11.40
2007,04,20,11,47,11.50
2007,04,20,11,48,11.60
2007,04,20,11,49,11.60
2007,04,20,11,50,11.60
2007,04,20,11,51,11.60
2007,04,20,11,52,11.30
2007,04,20,11,53,11.10
2007,04,20,11,54,11.00
2007,04,20,11,55,10.80
2007,04,20,11,56,10.70
2007,04,20,11,57,10.70
2007,04,20,11,58,10.60
2007,04,20,11,59,10.60
2007,04,20,12,00,10.70
2007,04,20,12,01,10.80
2007,04,20,12,02,10.80
2007,04,20,12,03,10.80
2007,04,20,12,04,10.90
2007,04,20,12,05,11.00
2007,04,20,12,06,11.30
2007,04,20,12,07,11.40
2007,04,20,12,08,11.60
2007,04,20,12,09,11.80
2007,04,20,12,10,11.80
2007,04,20,12,11,11.80
2007,04,20,12,12,11.80
2007,04,20,12,13,11.60
2007,04,20,12,14,11.40
2007,04,20,12,15,11.30
2007,04,20,12,16,11.30
2007,04,20,12,17,11.40
2007,04,20,12,18,11.60
2007,04,20,12,19,11.60
2007,04,20,12,20,11.60
2007,04,20,12,21,11.70
2007,04,20,12,22,11.70
2007,04,20,12,23,11.80
2007,04,20,12,24,11.90
2007,04,20,12,25,12.00
2007,04,20,12,26,12.00
2007,04,20,12,27,12.10
2007,04,20,12,28,12.10
2007,04,20,12,29,12.20
2007,04,20,12,30,12.10
2007,04,20,12,31,12.10
2007,04,20,12,32,12.00
2007,04,20,12,33,12.00
2007,04,20,12,34,11.80
2007,04,20,12,35,11.80
2007,04,20,12,36,11.80
2007,04,20,12,37,11.70
2007,04,20,12,38,11.60
2007,04,20,12,39,11.60
2007,04,20,12,40,11.60
2007,04,20,12,41,11.70
2007,04,20,12,42,11.80
2007,04,20,12,43,11.90
2007,04,20,12,44,12.00
2007,04,20,12,45,12.00
2007,04,20,12,46,12.00
2007,04,20,12,47,11.90
2007,04,20,12,48,11.80
2007,04,20,12,49,11.80
2007,04,20,12,50,11.80
2007,04,20,12,51,11.80
2007,04,20,12,52,11.70
2007,04,20,12,53,11.70
2007,04,20,12,54,11.70
2007,04,20,12,55,11.50
2007,04,20,12,56,11.60
2007,04,20,12,57,11.60
2007,04,20,12,58,11.70
2007,04,20,12,59,11.70
2007,04,20,13,00,11.70
2007,04,20,13,01,11.70
2007,04,20,13,02,11.50
2007,04,20,13,03,11.30
2007,04,20,13,04,11.10
2007,04,20,13,05,11.10
2007,04,20,13,06,11.10
2007,04,20,13,07,11.00
2007,04,20,13,08,10.80
2007,04,20,13,09,10.80
2007,04,20,13,10,10.90
2007,04,20,13,11,10.90
2007,04,20,13,12,10.90
2007,04,20,13,13,10.90
2007,04,20,13,14,11.00
2007,04,20,13,15,11.20
2007,04,20,13,16,11.30
2007,04,20,13,17,11.50
2007,04,20,13,18,11.60
2007,04,20,13,19,11.40
2007,04,20,13,20,11.30
2007,04,20,13,21,11.20
2007,04,20,13,22,11.20
2007,04,20,13,23,11.00
2007,04,20,13,24,10.90
2007,04,20,13,25,10.90
2007,04,20,13,26,11.00
2007,04,20,13,27,10.90
2007,04,20,13,28,10.70
2007,04,20,13,29,10.60
2007,04,20,13,30,10.30
2007,04,20,13,31,10.10
2007,04,20,13,32,10.00
2007,04,20,13,33,9.90
2007,04,20,13,34,9.90
2007,04,20,13,35,9.90
2007,04,20,13,36,9.90
2007,04,20,13,37,9.80
2007,04,20,13,38,9.70
2007,04,20,13,39,9.60
2007,04,20,13,40,9.50
2007,04,20,13,41,9.30
2007,04,20,13,42,9.40
2007,04,20,13,43,9.40
2007,04,20,13,44,9.50
2007,04,20,13,45,9.60
2007,04,20,13,46,9.50
2007,04,20,13,47,9.60
2007,04,20,13,48,9.70
2007,04,20,13,49,9.90
2007,04,20,13,50,9.90
2007,04,20,13,51,9.80
2007,04,20,13,52,9.70
2007,04,20,13,53,9.70
2007,04,20,13,54,9.70
2007,04,20,13,55,9.70
2007,04,20,13,56,9.70
2007,04,20,13,57,9.70
2007,04,20,13,58,9.70
2007,04,20,13,59,9.60
2007,04,20,14,00,9.40
2007,04,20,14,01,9.30
2007,04,20,14,02,9.30
2007,04,20,14,03,9.50
2007,04,20,14,04,9.70
2007,04,20,14,05,9.90
2007,04,20,14,06,10.00
2007,04,20,14,07,9.80
2007,04,20,14,08,9.70
2007,04,20,14,09,9.70
2007,04,20,14,10,9.70
2007,04,20,14,11,9.70
2007,04,20,14,12,9.60
2007,04,20,14,13,9.50
2007,04,20,14,14,9.40
2007,04,20,14,15,9.40
2007,04,20,14,16,9.40
2007,04,20,14,17,9.40
2007,04,20,14,18,9.60
2007,04,20,14,19,9.90
2007,04,20,14,20,10.00
2007,04,20,14,21,10.10
2007,04,20,14,22,10.20
2007,04,20,14,23,10.10
2007,04,20,14,24,10.10
2007,04,20,14,25,10.10
2007,04,20,14,26,10.10
2007,04,20,14,27,10.10
2007,04,20,14,28,10.10
2007,04,20,14,29,10.20
2007,04,20,14,30,10.10
2007,04,20,14,31,9.90
2007,04,20,14,32,9.90
2007,04,20,14,33,9.80
2007,04,20,14,34,9.80
2007,04,20,14,35,9.80
2007,04,20,14,36,9.80
2007,04,20,14,37,9.90
2007,04,20,14,38,10.00
2007,04,20,14,39,10.10
2007,04,20,14,40,10.10
2007,04,20,14,41,10.10
2007,04,20,14,42,10.00
2007,04,20,14,43,9.90
2007,04,20,14,44,9.90
2007,04,20,14,45,9.80
2007,04,20,14,46,9.80
2007,04,20,14,47,9.80
2007,04,20,14,48,9.70
2007,04,20,14,49,9.70
2007,04,20,14,50,9.70
2007,04,20,14,51,9.70
2007,04,20,14,52,9.70
2007,04,20,14,53,9.70
2007,04,20,14,54,9.70
2007,04,20,14,55,9.70
2007,04,20,14,56,9.70
2007,04,20,14,57,9.70
2007,04,20,14,58,9.70
2007,04,20,14,59,9.60
2007,04,20,15,00,9.60
2007,04,20,15,01,9.60
2007,04,20,15,02,9.60
2007,04,20,15,03,9.60
2007,04,20,15,04,10.00
2007,04,20,15,05,10.20
2007,04,20,15,06,10.40
2007,04,20,15,07,10.50
2007,04,20,15,08,10.50
2007,04,20,15,09,10.40
2007,04,20,15,10,10.40
2007,04,20,15,11,10.30
2007,04,20,15,12,10.20
2007,04,20,15,13,10.10
2007,04,20,15,14,9.90
2007,04,20,15,15,10.10
2007,04,20,15,16,10.10
2007,04,20,15,17,10.10
2007,04,20,15,18,10.00
2007,04,20,15,19,10.00
2007,04,20,15,20,9.90
2007,04,20,15,21,10.00
2007,04,20,15,22,10.20
2007,04,20,15,23,10.20
2007,04,20,15,24,10.20
2007,04,20,15,25,10.20
2007,04,20,15,26,10.40
2007,04,20,15,27,10.50
2007,04,20,15,28,10.60
2007,04,20,15,29,10.60
2007,04,20,15,30,10.60
2007,04,20,15,31,10.50
2007,04,20,15,32,10.30
2007,04,20,15,33,10.20
2007,04,20,15,34,10.10
2007,04,20,15,35,10.20
2007,04,20,15,36,10.20
2007,04,20,15,37,10.20
2007,04,20,15,38,10.20
2007,04,20,15,39,10.20
2007,04,20,15,40,10.20
2007,04,20,15,41,10.20
2007,04,20,15,42,10.20
2007,04,20,15,43,10.10
2007,04,20,15,44,10.20
2007,04,20,15,45,10.30
2007,04,20,15,46,10.40
2007,04,20,15,47,10.60
2007,04,20,15,48,10.60
2007,04,20,15,49,10.60
2007,04,20,15,50,10.60
2007,04,20,15,51,10.60
2007,04,20,15,52,10.50
2007,04,20,15,53,10.20
2007,04,20,15,54,10.10
2007,04,20,15,55,10.10
2007,04,20,15,56,10.10
2007,04,20,15,57,10.00
2007,04,20,15,58,9.80
2007,04,20,15,59,9.80
2007,04,20,16,00,9.80
2007,04,20,16,01,9.80
2007,04,20,16,02,9.80
2007,04,20,16,03,9.70
2007,04,20,16,04,9.70
2007,04,20,16,05,9.70
2007,04,20,16,06,9.70
2007,04,20,16,07,9.70
2007,04,20,16,08,9.70
2007,04,20,16,09,9.70
2007,04,20,16,10,9.70
2007,04,20,16,11,9.70
2007,04,20,16,12,9.70
2007,04,20,16,13,9.70
2007,04,20,16,14,9.70
2007,04,20,16,15,9.70
2007,04,20,16,16,9.80
2007,04,20,16,17,9.90
2007,04,20,16,18,10.00
2007,04,20,16,19,10.10
2007,04,20,16,20,10.10
2007,04,20,16,21,10.10
2007,04,20,16,22,9.90
2007,04,20,16,23,9.90
2007,04,20,16,24,9.90
2007,04,20,16,25,9.80
2007,04,20,16,26,9.70
2007,04,20,16,27,9.70
2007,04,20,16,28,9.60
2007,04,20,16,29,9.50
2007,04,20,16,30,9.50
2007,04,20,16,31,9.50
2007,04,20,16,32,9.50
2007,04,20,16,33,9.50
2007,04,20,16,34,9.50
2007,04,20,16,35,9.50
2007,04,20,16,36,9.60
2007,04,20,16,37,9.70
2007,04,20,16,38,9.80
2007,04,20,16,39,9.90
2007,04,20,16,40,9.90
2007,04,20,16,41,10.00
2007,04,20,16,42,10.00
2007,04,20,16,43,9.90
2007,04,20,16,44,9.90
2007,04,20,16,45,9.90
2007,04,20,16,46,9.80
2007,04,20,16,47,9.90
2007,04,20,16,48,10.00
2007,04,20,16,49,10.10
2007,04,20,16,50,10.20
2007,04,20,16,51,10.20
2007,04,20,16,52,10.20
2007,04,20,16,53,10.20
2007,04,20,16,54,10.20
2007,04,20,16,55,10.10
2007,04,20,16,56,10.10
2007,04,20,16,57,10.10
2007,04,20,16,58,10.10
2007,04,20,16,59,10.10
2007,04,20,17,00,10.10
2007,04,20,17,01,10.10
2007,04,20,17,02,10.20
2007,04,20,17,03,10.20
2007,04,20,17,04,10.20
2007,04,20,17,05,10.10
2007,04,20,17,06,10.10
2007,04,20,17,07,10.10
2007,04,20,17,08,10.10
2007,04,20,17,09,10.10
2007,04,20,17,10,10.10
2007,04,20,17,11,10.10
2007,04,20,17,12,10.10
2007,04,20,17,13,10.00
2007,04,20,17,14,9.90
2007,04,20,17,15,9.90
2007,04,20,17,16,9.90
2007,04,20,17,17,9.90
2007,04,20,17,18,9.90
2007,04,20,17,19,10.00
2007,04,20,17,20,10.00
2007,04,20,17,21,9.90
2007,04,20,17,22,9.90
2007,04,20,17,23,10.00
2007,04,20,17,24,10.10
2007,04,20,17,25,10.10
2007,04,20,17,26,10.10
2007,04,20,17,27,10.10
2007,04,20,17,28,10.20
2007,04,20,17,29,10.10
2007,04,20,17,30,10.10
2007,04,20,17,31,10.10
2007,04,20,17,32,10.10
2007,04,20,17,33,10.10
2007,04,20,17,34,10.10
2007,04,20,17,35,10.10
2007,04,20,17,36,10.00
2007,04,20,17,37,10.00
2007,04,20,17,38,10.10
2007,04,20,17,39,10.10
2007,04,20,17,40,10.10
2007,04,20,17,41,10.10
2007,04,20,17,42,10.20
2007,04,20,17,43,10.30
2007,04,20,17,44,10.30
2007,04,20,17,45,10.40
2007,04,20,17,46,10.40
2007,04,20,17,47,10.40
2007,04,20,17,48,10.40
2007,04,20,17,49,10.40
2007,04,20,17,50,10.50
2007,04,20,17,51,10.60